When you browse on this site, cookies collect data to enhance your experience and personalize the content and advertising you see.
Visit our Privacy Policy to learn more. By continuing to use the site, you agree to this use of cookies and data.
  • în România
  • Lista ţărilor
  • Pe 7 zile
  • Temperatura apei
  • Hartă satelitară
  • Meteo pe hartă
  • Widget-uri
  • user-avatar
    Intrare

    Meteo pe oră la Gorodischi

    Astăzi, 21 Iulie, Duminică

    Timp Temperatura Precipitaţii Vânt Presiune Umiditate
    00:00 +14°C° 0 mm 3 m/s 743 mmHg 91%
    01:00 +14°C° 0 mm 3 m/s 743 mmHg 92%
    02:00 +13°C° 0 mm 4 m/s 744 mmHg 92%
    03:00 +13°C° 0 mm 4 m/s 744 mmHg 92%
    04:00 +13°C° 0 mm 4 m/s 744 mmHg 91%
    05:00 +13°C° 0 mm 4 m/s 744 mmHg 90%
    06:00 +14°C° 0 mm 4 m/s 744 mmHg 89%
    07:00 +15°C° 0 mm 4 m/s 744 mmHg 85%
    08:00 +18°C° 0 mm 4 m/s 744 mmHg 81%
    09:00 +19°C° 0 mm 4 m/s 744 mmHg 76%
    10:00 +20°C° 0.1 mm 5 m/s 744 mmHg 74%
    11:00 +21°C° 0.1 mm 5 m/s 744 mmHg 71%
    12:00 +22°C° 0.1 mm 5 m/s 744 mmHg 68%
    13:00 +22°C° 0.5 mm 5 m/s 744 mmHg 69%
    14:00 +23°C° 0.5 mm 5 m/s 744 mmHg 69%
    15:00 +23°C° 0.5 mm 4 m/s 744 mmHg 70%
    16:00 +23°C° 0.5 mm 4 m/s 744 mmHg 72%
    17:00 +24°C° 0.5 mm 3 m/s 744 mmHg 74%
    18:00 +22°C° 0.5 mm 3 m/s 744 mmHg 75%
    19:00 +21°C° 0.6 mm 2 m/s 744 mmHg 79%
    20:00 +19°C° 0.6 mm 2 m/s 744 mmHg 83%
    21:00 +19°C° 0.6 mm 1 m/s 744 mmHg 86%
    22:00 +18°C° 0 mm 1 m/s 744 mmHg 87%
    23:00 +18°C° 0 mm 1 m/s 744 mmHg 88%

    Mâine, 22 Iulie, Luni

    Timp Temperatura Precipitaţii Vânt Presiune Umiditate
    00:00 +16°C° 0 mm 1 m/s 744 mmHg 89%
    01:00 +16°C° 0 mm 1 m/s 744 mmHg 89%
    02:00 +15°C° 0 mm 1 m/s 744 mmHg 90%
    03:00 +15°C° 0 mm 1 m/s 744 mmHg 91%
    04:00 +15°C° 0 mm 1 m/s 744 mmHg 90%
    05:00 +16°C° 0 mm 1 m/s 744 mmHg 90%
    06:00 +16°C° 0 mm 1 m/s 744 mmHg 90%
    07:00 +17°C° 0 mm 0 m/s 744 mmHg 85%
    08:00 +18°C° 0 mm 0 m/s 744 mmHg 81%
    09:00 +20°C° 0 mm 0 m/s 744 mmHg 76%
    10:00 +21°C° 0.4 mm 0 m/s 744 mmHg 72%
    11:00 +24°C° 0.4 mm 1 m/s 744 mmHg 68%
    12:00 +25°C° 0.4 mm 1 m/s 744 mmHg 63%
    13:00 +25°C° 0.4 mm 1 m/s 744 mmHg 62%
    14:00 +25°C° 0.4 mm 1 m/s 744 mmHg 60%
    15:00 +26°C° 0.4 mm 1 m/s 743 mmHg 58%
    16:00 +25°C° 0.1 mm 1 m/s 743 mmHg 61%
    17:00 +25°C° 0.1 mm 1 m/s 743 mmHg 63%
    18:00 +25°C° 0.1 mm 1 m/s 743 mmHg 65%
    19:00 +23°C° 0 mm 1 m/s 743 mmHg 70%
    20:00 +22°C° 0 mm 1 m/s 742 mmHg 74%
    21:00 +20°C° 0 mm 1 m/s 742 mmHg 79%
    22:00 +19°C° 0 mm 2 m/s 742 mmHg 81%
    23:00 +18°C° 0 mm 2 m/s 742 mmHg 82%

    Poimâine, 23 Iulie, Marţi

    Timp Temperatura Precipitaţii Vânt Presiune Umiditate
    00:00 +18°C° 0 mm 2 m/s 742 mmHg 84%
    01:00 +18°C° 0 mm 2 m/s 742 mmHg 85%
    02:00 +18°C° 0 mm 2 m/s 742 mmHg 86%
    03:00 +17°C° 0 mm 2 m/s 741 mmHg 87%
    04:00 +17°C° 0.1 mm 2 m/s 741 mmHg 88%
    05:00 +17°C° 0.1 mm 2 m/s 741 mmHg 88%
    06:00 +17°C° 0.1 mm 2 m/s 741 mmHg 89%
    07:00 +17°C° 1.4 mm 2 m/s 741 mmHg 91%
    08:00 +17°C° 1.4 mm 3 m/s 741 mmHg 93%
    09:00 +17°C° 1.4 mm 3 m/s 741 mmHg 95%
    10:00 +17°C° 1.5 mm 4 m/s 741 mmHg 95%
    11:00 +17°C° 1.5 mm 4 m/s 741 mmHg 95%
    12:00 +18°C° 1.5 mm 4 m/s 741 mmHg 94%
    13:00 +18°C° 0.1 mm 4 m/s 741 mmHg 94%
    14:00 +18°C° 0.1 mm 4 m/s 741 mmHg 94%
    15:00 +17°C° 0.1 mm 5 m/s 740 mmHg 93%
    16:00 +17°C° 0.5 mm 5 m/s 740 mmHg 94%
    17:00 +17°C° 0.5 mm 5 m/s 740 mmHg 94%
    18:00 +19°C° 0.5 mm 5 m/s 741 mmHg 94%
    19:00 +17°C° 0.3 mm 5 m/s 740 mmHg 95%
    20:00 +16°C° 0.3 mm 5 m/s 740 mmHg 96%
    21:00 +16°C° 0.3 mm 5 m/s 740 mmHg 96%
    22:00 +16°C° 0.9 mm 5 m/s 740 mmHg 96%
    23:00 +16°C° 0.9 mm 5 m/s 740 mmHg 97%

    24 Iulie, Miercuri

    Timp Temperatura Precipitaţii Vânt Presiune Umiditate
    00:00 +16°C° 0.9 mm 5 m/s 741 mmHg 97%
    01:00 +17°C° 0.3 mm 4 m/s 740 mmHg 97%
    02:00 +17°C° 0.3 mm 3 m/s 740 mmHg 97%
    03:00 +17°C° 0.3 mm 3 m/s 740 mmHg 97%
    04:00 +17°C° 0.2 mm 3 m/s 740 mmHg 97%
    05:00 +17°C° 0.2 mm 3 m/s 740 mmHg 97%
    06:00 +17°C° 0.2 mm 4 m/s 740 mmHg 97%
    07:00 +17°C° 0.1 mm 4 m/s 741 mmHg 96%
    08:00 +17°C° 0.1 mm 3 m/s 741 mmHg 95%
    09:00 +18°C° 0.1 mm 3 m/s 741 mmHg 94%
    10:00 +18°C° 0 mm 3 m/s 741 mmHg 94%
    11:00 +18°C° 0 mm 3 m/s 742 mmHg 93%
    12:00 +18°C° 0 mm 3 m/s 742 mmHg 92%
    13:00 +19°C° 0 mm 3 m/s 742 mmHg 91%
    14:00 +19°C° 0 mm 3 m/s 742 mmHg 90%
    15:00 +19°C° 0 mm 3 m/s 742 mmHg 89%
    16:00 +19°C° 0 mm 2 m/s 742 mmHg 89%
    17:00 +19°C° 0 mm 2 m/s 743 mmHg 89%
    18:00 +19°C° 0 mm 2 m/s 743 mmHg 89%
    19:00 +19°C° 0 mm 2 m/s 743 mmHg 91%
    20:00 +18°C° 0 mm 2 m/s 743 mmHg 93%
    21:00 +18°C° 0 mm 1 m/s 743 mmHg 94%
    22:00 +17°C° 0 mm 2 m/s 743 mmHg 95%
    23:00 +17°C° 0 mm 2 m/s 743 mmHg 95%

    25 Iulie, Joi

    Timp Temperatura Precipitaţii Vânt Presiune Umiditate
    00:00 +16°C° 0 mm 2 m/s 744 mmHg 96%
    01:00 +16°C° 0 mm 2 m/s 744 mmHg 96%
    02:00 +16°C° 0 mm 2 m/s 743 mmHg 96%
    03:00 +16°C° 0 mm 2 m/s 743 mmHg 96%
    04:00 +16°C° 0 mm 2 m/s 744 mmHg 95%
    05:00 +16°C° 0 mm 2 m/s 744 mmHg 94%
    06:00 +16°C° 0 mm 2 m/s 744 mmHg 93%
    07:00 +17°C° 0 mm 2 m/s 744 mmHg 92%
    08:00 +17°C° 0 mm 3 m/s 744 mmHg 90%
    09:00 +17°C° 0 mm 3 m/s 744 mmHg 89%
    10:00 +18°C° 0.2 mm 3 m/s 744 mmHg 89%
    11:00 +18°C° 0.2 mm 3 m/s 745 mmHg 89%
    12:00 +18°C° 0.2 mm 2 m/s 745 mmHg 89%
    13:00 +18°C° 0 mm 2 m/s 744 mmHg 88%
    14:00 +19°C° 0 mm 2 m/s 744 mmHg 87%
    15:00 +20°C° 0 mm 1 m/s 744 mmHg 85%
    16:00 +21°C° 0 mm 1 m/s 744 mmHg 84%
    17:00 +22°C° 0 mm 1 m/s 744 mmHg 82%
    18:00 +23°C° 0 mm 1 m/s 744 mmHg 80%
    19:00 +22°C° 0.1 mm 1 m/s 744 mmHg 83%
    20:00 +21°C° 0.1 mm 1 m/s 744 mmHg 85%
    21:00 +19°C° 0.1 mm 1 m/s 744 mmHg 88%
    22:00 +19°C° 0 mm 1 m/s 744 mmHg 88%
    23:00 +18°C° 0 mm 2 m/s 744 mmHg 88%

    26 Iulie, Vineri

    Timp Temperatura Precipitaţii Vânt Presiune Umiditate
    00:00 +17°C° 0 mm 2 m/s 744 mmHg 88%
    01:00 +17°C° 0 mm 2 m/s 744 mmHg 89%
    02:00 +17°C° 0 mm 3 m/s 744 mmHg 90%
    03:00 +16°C° 0 mm 3 m/s 744 mmHg 91%
    04:00 +16°C° 0 mm 3 m/s 744 mmHg 91%
    05:00 +16°C° 0 mm 3 m/s 744 mmHg 91%
    06:00 +16°C° 0 mm 3 m/s 744 mmHg 91%
    07:00 +18°C° 0 mm 3 m/s 744 mmHg 86%
    08:00 +19°C° 0 mm 3 m/s 744 mmHg 82%
    09:00 +20°C° 0 mm 3 m/s 744 mmHg 78%
    10:00 +22°C° 0 mm 3 m/s 744 mmHg 72%
    11:00 +24°C° 0 mm 3 m/s 743 mmHg 67%
    12:00 +25°C° 0 mm 3 m/s 743 mmHg 61%
    13:00 +25°C° 0.1 mm 4 m/s 743 mmHg 62%
    14:00 +25°C° 0.1 mm 4 m/s 743 mmHg 63%
    15:00 +26°C° 0.1 mm 4 m/s 742 mmHg 65%
    16:00 +25°C° 0.2 mm 4 m/s 742 mmHg 67%
    17:00 +23°C° 0.2 mm 4 m/s 742 mmHg 69%
    18:00 +22°C° 0.2 mm 4 m/s 742 mmHg 72%
    19:00 +20°C° 0 mm 4 m/s 742 mmHg 75%
    20:00 +19°C° 0 mm 4 m/s 742 mmHg 78%
    21:00 +17°C° 0 mm 4 m/s 742 mmHg 81%
    22:00 +16°C° 0 mm 3 m/s 742 mmHg 82%
    23:00 +14°C° 0 mm 3 m/s 742 mmHg 83%
    Arată mai mult